STARLINK-3140 (49460 NORAD) Tracking and Keplerian Element Data

This shows tracking and keplerian element data for the satellite.

Feedback or suggestion? Click here.




ElementValue
Catalog49460
NameSTARLINK-3140
Epoch Orbit487
Epoch Day340.25001157
Epoch Year2021
RAAN20.5405
Inclination53.2182
Eccentricity0.0002034
Argument of Perigee28.3013
Mean Anonmoly152.1892
Mean Motion15.731993
Decay Rate9.76E-06
L11 49460U 21104BE 21340.25001157 .00000976 00000+0 11380-4 0 9990
L22 49460 53.2182 20.5405 0002034 28.3013 152.1892 15.73199300 4873

Live tracking and technical data element details for STARLINK-3140 (NORAD 49460). STARLINK-3140 can be tracked NOW for your location showing map with azimuth and elevation plus other details from your city location.

Track the satellite on the map from your city or location and see movement details for azimuth, elevation, latitude, longitude, range, height, and movement on the map or in text.







IsCatalogInMostPopularTable: catalog: 49460, numindb: 7
Update: records affected: 1



GetName: 49460 STARLINK-3140

Hit Count: updated at: Wed, 08 Dec 2021 16:36:31 GMT